EW6576 Weather Reports


Display with metric or nautical units.
time (UTC)temp
F
wind
direction
speed
MPH
gust
MPH
rain 1hr
in
rain 24hr
in
rain mn
in
humidity
%
barometer
mb
20260505232306 63 195 5.0 8.0 0.00 0.65 0.65 66 1014.5
20260505231802 63 124 3.0 5.0 0.00 0.65 0.65 61 1014.5
20260505231301 63 88 3.0 3.0 0.00 0.65 0.65 61 1014.3
20260505230758 63 93 9.0 11.0 0.00 0.65 0.65 61 1014.5
20260505230255 64 188 4.0 5.0 0.00 0.65 0.65 61 1014.5
20260505225752 64 110 2.0 3.0 0.00 0.65 0.65 59 1014.5
20260505225249 65 124 9.0 13.0 0.00 0.65 0.65 59 1014.6
20260505224743 63 133 1.0 3.0 0.00 0.65 0.65 62 1014.5
20260505224242 65 132 6.0 8.0 0.00 0.65 0.65 60 1014.6
20260505223739 64 152 8.0 10.0 0.00 0.65 0.65 60 1014.6
20260505223235 65 165 3.0 3.0 0.00 0.65 0.65 59 1014.8
20260505222731 65 126 7.0 9.0 0.00 0.65 0.65 57 1014.7
20260505222227 65 124 9.0 11.0 0.00 0.65 0.65 57 1014.5
20260505221725 64 153 2.0 3.0 0.00 0.65 0.65 60 1014.7
20260505221221 64 111 5.0 8.0 0.00 0.65 0.65 59 1014.8
20260505220718 64 97 5.0 7.0 0.00 0.65 0.65 60 1014.8
20260505220216 64 70 7.0 10.0 0.00 0.65 0.65 56 1015.1
20260505215714 65 44 1.0 1.0 0.00 0.65 0.65 59 1014.9
20260505215212 64 163 9.0 13.0 0.00 0.65 0.65 58 1014.9
20260505214709 65 101 6.0 7.0 0.00 0.65 0.65 57 1014.9
20260505214206 65 78 4.0 7.0 0.00 0.65 0.65 57 1015.0
20260505213704 65 84 5.0 9.0 0.00 0.65 0.65 58 1015.1
20260505213201 64 91 11.0 16.0 0.00 0.65 0.65 56 1015.0
20260505212656 65 164 2.0 2.0 0.00 0.65 0.65 61 1015.1
20260505212154 64 185 4.0 5.0 0.00 0.65 0.65 62 1015.3
20260505211651 65 105 6.0 8.0 0.00 0.65 0.65 56 1015.3
20260505211148 65 134 4.0 7.0 0.00 0.65 0.65 63 1015.4
20260505210644 64 182 2.0 2.0 0.00 0.65 0.65 60 1015.4
20260505210141 63 93 3.0 5.0 0.00 0.65 0.65 61 1015.5
20260505205639 64 190 7.0 9.0 0.00 0.65 0.65 62 1015.4
20260505205137 65 94 3.0 3.0 0.00 0.65 0.65 58 1015.4
20260505204633 65 171 2.0 3.0 0.00 0.65 0.65 59 1015.5
20260505204131 65 203 3.0 3.0 0.00 0.65 0.65 61 1015.3
20260505203628 63 177 9.0 13.0 0.00 0.65 0.65 64 1015.4
20260505203125 64 215 4.0 6.0 0.00 0.65 0.65 65 1015.4
20260505202620 64 121 4.0 6.0 0.00 0.65 0.65 62 1015.3
20260505202116 64 185 5.0 6.0 0.00 0.65 0.65 63 1015.3
20260505201613 64 166 6.0 10.0 0.00 0.65 0.65 59 1015.4
20260505201111 67 94 3.0 3.0 0.00 0.65 0.65 55 1015.4
20260505200609 66 78 5.0 7.0 0.00 0.65 0.65 55 1015.3
20260505200106 65 92 4.0 5.0 0.00 0.65 0.65 52 1015.4
20260505195601 65 138 6.0 7.0 0.00 0.65 0.65 55 1015.4
20260505195059 65 171 2.0 2.0 0.00 0.65 0.65 51 1015.5
20260505194556 65 167 4.0 6.0 0.00 0.65 0.65 52 1015.7
20260505194052 64 177 3.0 5.0 0.00 0.65 0.65 56 1015.5
20260505193549 65 146 1.0 2.0 0.00 0.65 0.65 58 1015.6
20260505193046 64 194 3.0 6.0 0.00 0.65 0.65 59 1015.6
20260505192545 65 177 2.0 3.0 0.00 0.65 0.65 55 1015.7
20260505192042 64 141 6.0 8.0 0.00 0.65 0.65 54 1015.6
20260505191540 65 124 9.0 11.0 0.00 0.65 0.65 57 1015.6
20260505191038 64 145 4.0 6.0 0.00 0.65 0.65 57 1015.5
20260505190532 63 66 7.0 9.0 0.00 0.65 0.65 60 1015.8
20260505190028 62 96 4.0 6.0 0.00 0.65 0.65 61 1015.7
20260505185525 63 48 5.0 7.0 0.00 0.65 0.65 61 1015.7
20260505185022 64 171 4.0 8.0 0.00 0.65 0.65 62 1015.6
20260505184519 64 112 7.0 9.0 0.00 0.65 0.65 61 1015.6
20260505184015 63 204 3.0 6.0 0.00 0.65 0.65 63 1015.7
20260505183512 64 216 3.0 7.0 0.00 0.65 0.65 62 1015.6
20260505183010 64 158 3.0 3.0 0.00 0.65 0.65 63 1015.6
20260505182506 64 114 3.0 3.0 0.00 0.65 0.65 65 1015.5
20260505182002 63 166 2.0 3.0 0.00 0.65 0.65 59 1015.8
20260505181459 63 66 2.0 3.0 0.00 0.65 0.65 61 1015.7
20260505180956 62 146 5.0 6.0 0.00 0.65 0.65 63 1015.6
20260505180452 63 135 6.0 8.0 0.00 0.65 0.65 66 1015.7
20260505175949 63 263 1.0 2.0 0.00 0.65 0.65 68 1015.5
20260505175445 61 156 4.0 6.0 0.00 0.65 0.65 71 1015.7
20260505174941 61 8 1.0 1.0 0.00 0.65 0.65 73 1015.6
20260505174434 61 34 4.0 6.0 0.00 0.65 0.65 74 1015.5
20260505173930 61 134 6.0 8.0 0.00 0.65 0.65 76 1015.2
20260505173426 61 155 3.0 3.0 0.00 0.65 0.65 79 1015.3
20260505172923 60 108 5.0 6.0 0.00 0.65 0.65 81 1015.4
20260505172422 59 176 2.0 2.0 0.00 0.65 0.65 82 1015.3
20260505171921 59 139 1.0 1.0 0.00 0.65 0.65 84 1015.1
20260505171418 59 123 1.0 2.0 0.00 0.65 0.65 86 1015.4
20260505170914 58 105 3.0 5.0 0.00 0.65 0.65 87 1015.1
20260505170411 58 170 2.0 3.0 0.00 0.65 0.65 89 1015.1
20260505165906 57 186 3.0 5.0 0.00 0.65 0.65 92 1014.8
20260505165403 57 102 2.0 2.0 0.00 0.65 0.65 95 1014.9
20260505164858 56 90 3.0 3.0 0.00 0.65 0.65 97 1015.0
20260505164355 56 173 0.0 1.0 0.00 0.65 0.65 98 1015.1
20260505163853 56 136 2.0 2.0 0.00 0.65 0.65 99 1014.8
20260505163352 56 93 3.0 3.0 0.00 0.65 0.65 99 1014.8
20260505162850 56 119 1.0 1.0 0.00 0.65 0.65 99 1014.8
20260505162346 57 66 0.0 0.0 0.00 0.65 0.65 99 1014.8
20260505161843 56 118 1.0 1.0 0.00 0.65 0.65 99 1014.9
20260505161340 56 133 1.0 1.0 0.00 0.65 0.65 99 1014.8
20260505160837 55 85 1.0 1.0 0.00 0.65 0.65 99 1014.7
20260505160335 55 116 0.0 0.0 0.00 0.65 0.65 99 1014.6
20260505153314 54 147 0.0 0.0 0.07 0.64 0.64 99 1014.5
20260505152811 54 170 0.0 0.0 0.00 0.63 0.63 99 1014.1
20260505152308 55 188 0.0 0.0 0.00 0.63 0.63 99 1014.6
20260505151802 55 121 2.0 2.0 0.00 0.63 0.63 99 1014.4
20260505151259 55 113 2.0 2.0 0.00 0.63 0.63 99 1014.2
20260505150756 55 181 1.0 1.0 0.00 0.63 0.63 99 1014.3
20260505150253 55 152 2.0 2.0 0.00 0.63 0.63 99 1014.2
20260505140217 53 123 0.0 1.0 0.00 0.62 0.62 99 1014.0
20260505130141 54 144 0.0 0.0 0.05 0.61 0.61 99 1013.6
20260505124631 54 181 0.0 0.0 0.28 0.58 0.58 99 1013.3
20260505124128 54 181 0.0 0.0 0.73 0.55 0.55 99 1013.4
20260505123623 53 99 0.0 1.0 1.06 0.54 0.54 99 1013.4
20260505123120 53 136 1.0 2.0 0.71 0.45 0.45 99 1013.7
20260505122617 54 136 1.0 1.0 0.26 0.36 0.36 99 1013.6
20260505122114 53 147 0.0 0.0 0.12 0.33 0.33 99 1013.2
20260505121610 53 146 0.0 0.0 0.05 0.32 0.32 99 1013.3
20260505121107 53 146 0.0 0.0 0.00 0.31 0.31 99 1013.2
20260505120604 53 147 0.0 0.0 0.00 0.31 0.31 99 1013.3
20260505120100 53 147 0.0 0.0 0.00 0.31 0.31 99 1013.3
20260505115554 53 146 0.0 0.0 0.00 0.31 0.31 99 1013.2
20260505115052 53 147 0.0 0.0 0.00 0.31 0.31 99 1013.1
20260505114549 54 131 0.0 0.0 0.00 0.31 0.31 99 1013.2
20260505114045 53 130 0.0 0.0 0.00 0.31 0.31 99 1013.3
20260505113541 54 128 1.0 2.0 0.00 0.31 0.31 99 1013.3
20260505113038 54 148 0.0 0.0 0.00 0.31 0.31 99 1013.2
20260505112534 54 130 0.0 0.0 0.00 0.31 0.31 99 1013.3
20260505112032 54 117 1.0 1.0 0.00 0.31 0.31 99 1013.2
20260505111526 54 135 1.0 1.0 0.00 0.31 0.31 99 1013.4
20260505111022 54 114 0.0 0.0 0.00 0.31 0.31 99 1013.3
20260505110514 54 116 0.0 0.0 0.00 0.31 0.31 99 1013.4
20260505101946 54 132 2.0 3.0 0.00 0.30 0.30 99 1013.3
20260505101444 54 116 1.0 1.0 0.00 0.30 0.30 99 1013.4
20260505100940 54 118 1.0 1.0 0.05 0.30 0.30 99 1013.4
20260505100437 54 132 0.0 0.0 0.05 0.30 0.30 99 1013.4
20260505095933 54 125 0.0 0.0 0.00 0.29 0.29 99 1013.9
20260505095430 54 135 2.0 2.0 0.00 0.29 0.29 99 1013.7
20260505094926 54 94 3.0 3.0 0.00 0.29 0.29 99 1013.4
20260505094423 54 129 0.0 0.0 0.07 0.29 0.29 99 1013.7
20260505093919 54 137 0.0 0.0 0.12 0.29 0.29 99 1013.7
20260505093416 54 136 0.0 0.0 0.12 0.28 0.28 99 1013.5
20260505092914 55 138 1.0 1.0 0.12 0.27 0.27 99 1013.6
20260505092412 55 121 1.0 1.0 0.05 0.26 0.26 99 1013.6
20260505091909 55 147 0.0 1.0 0.00 0.25 0.25 99 1013.5
20260505091406 55 153 0.0 0.0 0.00 0.25 0.25 99 1013.6
20260505090904 55 154 0.0 0.0 0.00 0.25 0.25 99 1013.8
20260505090402 55 154 0.0 0.0 0.00 0.25 0.25 99 1013.7
20260505085859 55 164 0.0 0.0 0.00 0.25 0.25 99 1013.8
20260505085357 55 132 0.0 1.0 0.00 0.25 0.25 99 1013.9
20260505084855 55 187 0.0 0.0 0.00 0.25 0.25 99 1013.9
20260505084353 55 151 0.0 0.0 0.00 0.25 0.25 98 1013.9
20260505083850 55 151 0.0 0.0 0.00 0.25 0.25 98 1014.0
20260505083348 55 151 0.0 0.0 0.00 0.25 0.25 98 1013.9
20260505082844 55 150 0.0 0.0 0.00 0.25 0.25 98 1014.0
20260505082340 55 162 0.0 0.0 0.07 0.25 0.25 98 1014.2
20260505081836 55 175 0.0 0.0 0.26 0.25 0.25 98 1014.1
20260505081333 55 106 0.0 0.0 0.19 0.24 0.24 98 1014.3
20260505080830 55 140 0.0 0.0 0.00 0.21 0.21 97 1014.3
20260505080326 55 120 0.0 0.0 0.00 0.21 0.21 97 1014.3
20260505075821 55 100 0.0 0.0 0.00 0.21 0.21 97 1014.4
20260505075319 55 194 0.0 0.0 0.00 0.21 0.21 97 1014.2
20260505074816 55 194 0.0 0.0 0.00 0.21 0.21 97 1014.2
20260505074313 55 192 0.0 0.0 0.05 0.21 0.21 96 1014.3
20260505073811 55 193 0.0 0.0 0.40 0.21 0.21 96 1014.4
20260505073308 55 185 0.0 0.0 0.66 0.20 0.20 96 1014.5
20260505072805 56 186 0.0 1.0 0.66 0.14 0.14 95 1014.6
20260505072301 56 194 0.0 1.0 0.61 0.10 0.10 96 1014.5
20260505071757 56 131 0.0 0.0 0.24 0.04 0.04 95 1014.6
20260505071254 56 130 0.0 0.0 0.00 0.00 0.00 95 1014.5
20260505070751 56 130 0.0 0.0 0.00 0.00 0.00 95 1014.7
20260505070248 56 129 0.0 0.0 0.00 0.00 0.00 95 1014.6
20260505065743 56 129 0.0 0.0 0.00 0.02 0.02 95 1014.6
20260505065240 56 129 0.0 0.0 0.00 0.02 0.02 95 1014.7
20260505064737 55 128 0.0 0.0 0.00 0.02 0.02 95 1014.5
20260505064235 55 128 0.0 0.0 0.00 0.02 0.02 95 1014.6
20260505063732 55 124 0.0 0.0 0.00 0.02 0.02 95 1014.7
20260505063228 55 147 0.0 0.0 0.00 0.02 0.02 95 1014.8
20260505062725 55 147 0.0 0.0 0.00 0.02 0.02 95 1014.9
20260505062223 55 146 0.0 1.0 0.00 0.02 0.02 95 1014.8
20260505061719 55 146 0.0 0.0 0.00 0.02 0.02 95 1014.9
20260505061217 55 147 0.0 0.0 0.00 0.02 0.02 94 1014.8
20260505060714 55 132 1.0 1.0 0.00 0.02 0.02 94 1014.8
20260505060211 55 146 0.0 0.0 0.00 0.02 0.02 94 1014.9
20260505055707 56 146 0.0 0.0 0.00 0.02 0.02 93 1015.1
20260505055203 56 182 0.0 0.0 0.00 0.02 0.02 93 1015.1
20260505054700 56 182 0.0 1.0 0.00 0.02 0.02 93 1014.9
20260505054158 56 195 2.0 2.0 0.00 0.02 0.02 93 1015.1
20260505053656 57 166 0.0 1.0 0.00 0.02 0.02 93 1015.1
20260505053152 57 118 1.0 1.0 0.00 0.02 0.02 93 1015.2
20260505052649 57 133 1.0 2.0 0.00 0.02 0.02 93 1015.1
20260505052147 57 171 0.0 0.0 0.00 0.02 0.02 92 1015.2
20260505051643 57 132 2.0 2.0 0.00 0.02 0.02 92 1015.2
20260505051142 57 147 1.0 1.0 0.00 0.02 0.02 92 1015.4
20260505050639 58 149 2.0 2.0 0.00 0.02 0.02 91 1015.1
20260505050137 58 117 3.0 3.0 0.00 0.02 0.02 91 1015.1
20260505041607 59 131 0.0 0.0 0.00 0.02 0.02 81 1015.2
20260505041104 59 148 1.0 2.0 0.00 0.02 0.02 81 1015.2
20260505040601 59 120 1.0 1.0 0.00 0.02 0.02 82 1015.0
20260505040058 59 170 0.0 0.0 0.00 0.02 0.02 81 1015.0
20260505035555 59 164 0.0 0.0 0.00 0.02 0.02 82 1015.0
20260505035051 59 133 0.0 0.0 0.00 0.02 0.02 82 1014.9
20260505034548 59 114 1.0 1.0 0.00 0.02 0.02 82 1015.4
20260505034045 59 175 2.0 2.0 0.00 0.02 0.02 82 1015.0
20260505033542 59 142 1.0 2.0 0.00 0.02 0.02 82 1015.0
20260505033040 59 131 2.0 2.0 0.00 0.02 0.02 82 1015.0
20260505032538 59 128 2.0 2.0 0.00 0.02 0.02 82 1015.0
20260505032034 59 101 2.0 3.0 0.00 0.02 0.02 82 1014.9
20260505031531 59 137 3.0 3.0 0.00 0.02 0.02 82 1015.0
20260505031027 59 139 2.0 2.0 0.00 0.02 0.02 82 1014.8
20260505030524 59 126 0.0 1.0 0.00 0.02 0.02 82 1014.6
20260505030020 59 151 2.0 3.0 0.00 0.02 0.02 82 1014.7
20260505025516 59 108 4.0 5.0 0.00 0.02 0.02 81 1014.6
20260505025016 59 171 1.0 1.0 0.00 0.02 0.02 81 1014.8
20260505024512 59 189 1.0 1.0 0.00 0.02 0.02 81 1014.4
20260505024009 60 189 1.0 1.0 0.00 0.02 0.02 80 1014.7
20260505023506 60 134 1.0 2.0 0.00 0.02 0.02 80 1014.3
20260505023004 60 214 2.0 3.0 0.00 0.02 0.02 80 1014.7
20260505022501 60 127 2.0 2.0 0.00 0.02 0.02 80 1014.5
20260505021958 60 111 1.0 2.0 0.00 0.02 0.02 80 1014.8
20260505021454 60 184 2.0 3.0 0.00 0.02 0.02 79 1014.6
20260505020950 60 189 2.0 3.0 0.00 0.02 0.02 79 1014.8
20260505020445 60 182 2.0 2.0 0.00 0.02 0.02 78 1014.8
20260505015943 60 197 3.0 3.0 0.00 0.02 0.02 78 1014.6
20260505015440 60 88 4.0 6.0 0.00 0.02 0.02 77 1014.4
20260505014937 61 148 2.0 3.0 0.00 0.02 0.02 77 1014.6
20260505014434 61 179 1.0 2.0 0.00 0.02 0.02 76 1014.6
20260505013931 61 88 2.0 2.0 0.00 0.02 0.02 76 1014.7
20260505013428 61 204 0.0 1.0 0.00 0.02 0.02 75 1014.6
20260505012926 62 157 2.0 2.0 0.00 0.02 0.02 74 1014.9
20260505012424 62 110 2.0 3.0 0.00 0.02 0.02 74 1014.7
20260505011919 63 182 3.0 3.0 0.00 0.02 0.02 71 1014.6
20260505011416 63 199 2.0 2.0 0.00 0.02 0.02 71 1014.7
20260505010913 63 196 3.0 3.0 0.00 0.02 0.02 70 1014.8
20260505010409 63 112 3.0 6.0 0.00 0.02 0.02 71 1014.8
20260505005904 62 220 3.0 5.0 0.00 0.02 0.02 71 1014.7
20260505005402 63 162 5.0 7.0 0.00 0.02 0.02 68 1015.0
20260505004859 63 104 5.0 6.0 0.00 0.02 0.02 67 1014.7
20260505004355 64 178 3.0 5.0 0.00 0.02 0.02 69 1015.1
20260505003853 64 134 5.0 6.0 0.00 0.02 0.02 67 1015.1
20260505003350 65 107 2.0 3.0 0.00 0.02 0.02 67 1015.1
20260505002845 64 69 5.0 8.0 0.00 0.02 0.02 65 1014.8
20260505002343 64 117 5.0 8.0 0.00 0.02 0.02 63 1014.7
20260505001841 64 146 3.0 5.0 0.00 0.02 0.02 64 1014.6
20260505001338 63 228 3.0 3.0 0.00 0.02 0.02 66 1014.9
20260505000835 64 208 8.0 13.0 0.00 0.02 0.02 64 1014.8
20260505000333 64 180 9.0 13.0 0.00 0.02 0.02 64 1014.6
20260504235829 64 172 7.0 8.0 0.00 0.02 0.02 63 1015.0
20260504235326 65 58 4.0 6.0 0.00 0.02 0.02 64 1014.8
20260504234823 64 173 3.0 5.0 0.00 0.02 0.02 64 1014.8
20260504234321 65 140 3.0 5.0 0.00 0.02 0.02 65 1014.8
20260504233817 64 49 6.0 7.0 0.00 0.02 0.02 62 1014.6
20260504233313 64 144 3.0 5.0 0.00 0.02 0.02 60 1014.8
20260504232809 64 134 2.0 5.0 0.00 0.02 0.02 58 1014.9